User: anonymous   Login
Location: Tel Aviv
(32.0670°N, 34.7670°E)
Time: 21:54:37
(UTC+03:00)
Language:

A-11 Canister half - Orbit

View from above orbital plane
View from above orbital plane
View from above satellite
View from above satellite

Ground track
Ground track

The orbit data is extracted from the following two-line orbital elements,

1 00051U 60009C   24199.39036477 -.00000041  00000-0  41543-3 0  9991
2 00051  47.2146  54.7091 0106421 276.2166  82.6508 12.18329757845856
Epoch (UTC): 17 July 2024 09:22:07
Eccentricity: 0.0106421
inclination: 47.2146°
perigee height: 1515 km
apogee height: 1685 km
right ascension of ascending node: 54.7091°
argument of perigee: 276.2166°
revolutions per day: 12.18329757
mean anomaly at epoch: 82.6508°
orbit number at epoch: 84585

The dashed part of the orbit path shows where the satellite is in the earth's shadow,  

DLR